Regional Weather Roundup
Issued by NWS

Home | Current Version | Previous Version | Graphics & Text | Print | Product List | Glossary On
Versions: 1 2 3 4 5 6 7 8 9 10 11 12 13 14 15 16 17 18 19 20 21 22 23 24 25 26 27 28 29 30 31 32 33 34 35 36 37 38 39 40 41 42 43 44 45 46 47 48 49 50
000
ASUS43 KFSD 211202
RWRSD

WEATHER ROUNDUP FOR SOUTH DAKOTA
NATIONAL WEATHER SERVICE SIOUX FALLS SD
600 AM CST TUE FEB 21 2017

NOTE: "FAIR" INDICATES FEW OR NO CLOUDS BELOW 12,000 FEET WITH NO
SIGNIFICANT WEATHER AND/OR OBSTRUCTIONS TO VISIBILITY.


SDZ001>005-009-010-012>017-211300-
NORTHWEST AND NORTH CENTRAL SOUTH DAKOTA

CITY           SKY/WX    TMP DP  RH WIND       PRES   REMARKS
BUFFALO          N/A     47  33  58 W13       29.67R
FAITH            N/A     43  34  70 W9        29.73S
MOBRIDGE       CLEAR     37  29  72 SE7       29.69R
$$

SDZ012>016-024>037-041>051-057-063-072>074-211300-
SOUTHWEST AND SOUTH CENTRAL SOUTH DAKOTA

CITY           SKY/WX    TMP DP  RH WIND       PRES   REMARKS
RAPID CTY ARPT PTCLDY    46  30  53 S7        29.78S
PIERRE         CLEAR     41  30  65 W9        29.74R
CUSTER         CLOUDY    44  29  55 W12G31    29.88R
ELLSWORTH AFB  CLOUDY    47  30  52 S8        29.76F
PHILIP         CLEAR     51  31  46 SW17      29.76S
PINE RIDGE     CLEAR     35  28  75 W5        29.87S
SPEARFISH      MOCLDY    52  32  46 SW25G37   29.75F
WINNER         FAIR      46  28  49 SW14      29.79F
$$

SDZ004>011-016>023-039-040-211300-
NORTHEAST SOUTH DAKOTA

CITY           SKY/WX    TMP DP  RH WIND       PRES   REMARKS
ABERDEEN       PTCLDY    35  30  82 S10       29.72F WCI  27
WATERTOWN      CLEAR     34  32  92 S10       29.76F WCI  26
BROOKINGS      CLEAR     35  34  96 S10       29.82F WCI  27
SISSETON         N/A     36  32  85 E8        29.74F
$$

SDZ017-020-022-023-036>040-048>070-211300-
SOUTHEAST SOUTH DAKOTA

CITY           SKY/WX    TMP DP  RH WIND       PRES   REMARKS
SIOUX FALLS    CLEAR     40  36  86 SW5       29.88F
HURON          PTCLDY    36  31  82 S14       29.76F
CHAMBERLAIN    CLEAR     44  32  61 SW12      29.77F
MITCHELL       CLEAR     40  31  70 S10       29.81F
YANKTON        CLEAR     34  28  80 SE6       29.88S WCI  29
$$

ABBREVIATIONS USED IN REMARKS
   TC - TEMPERATURE IN CELSIUS
  WCI - WIND CHILL INDEX
   HX - HEAT INDEX
  VSB - VISIBILITY





USA.gov is the U.S. government's official web portal to all federal, state and local government web resources and services.